Weather History for KARR - May, 2013

Change the Weather History Date:

Thursday, May 2, 2013

  Actual Average Record
Temperature  
Mean Temperature 54 °F 54 °F  
Max Temperature 63 °F 66 °F 82 °F (2001)
Min Temperature 45 °F 42 °F 32 °F (2004)
Degree Days  
Heating Degree Days 11 11  
Month to date heating degree days 11 22  
Since 1 July heating degree days 6484 6528  
Cooling Degree Days 0 0  
Month to date cooling degree days 4 0  
Year to date cooling degree days 11 3  
Growing Degree Days 4 (Base 50)    
Moisture  
Dew Point 45 °F    
Average Humidity 76    
Maximum Humidity 86    
Minimum Humidity 66    
Precipitation  
Precipitation 0.15 in 0.13 in 0.57 in (2010)
Month to date precipitation 0.15 0.26  
Year to date precipitation 13.87 8.88  
Sea Level Pressure  
Sea Level Pressure 30.16 in    
Wind  
Wind Speed 12 mph (NE)    
Max Wind Speed 22 mph    
Max Gust Speed 26 mph    
Visibility 10 miles    
Events Rain , Thunderstorm    
T = Trace of Precipitation, MM = Missing Value Source: NWS Daily Summary

Daily Weather History Graph

Daily Weather History Graph

Search for Another Location

Airport or City:

Trip Planner

Search our weather history database for the weather conditions in past years. The results will help you decide how hot, cold, wet, or windy it might be!

Date:

Astronomy

May. 02, 2013 Rise Set
Actual Time 5:48 AM CDT 7:53 PM CDT
Civil Twilight 5:18 AM CDT 8:24 PM CDT
Nautical Twilight 4:41 AM CDT 9:01 PM CDT
Astronomical Twilight 4:00 AM CDT 9:42 PM CDT
Moon 1:42 AM CDT (5/2) 12:36 PM CDT (5/2)
Length of Visible Light 15h 05m
Length of Day
14h 04m
Waning Gibbous, 47% of the Moon is Illuminated
May 2
Waning Gibbous
May 9
New
May 17
First Quarter
May 24
Full
May 31
Last Quarter

Hourly Weather History & Observations

Time (CDT) Temp. Windchill Dew Point Humidity Pressure Visibility Wind Dir Wind Speed Gust Speed Precip Events Conditions
12:52 AM 62.1 °F - 53.1 °F 72% 30.12 in 10.0 mi SE 3.5 mph - N/A   Clear
1:52 AM 63.0 °F - 52.0 °F 67% 30.11 in 10.0 mi ESE 3.5 mph - N/A   Clear
2:52 AM 59.0 °F - 53.1 °F 81% 30.11 in 10.0 mi NNE 9.2 mph - N/A   Mostly Cloudy
3:52 AM 52.0 °F - 45.0 °F 77% 30.14 in 10.0 mi NE 17.3 mph - N/A   Overcast
4:52 AM 48.9 °F - 43.0 °F 80% 30.15 in 10.0 mi NE 13.8 mph - N/A   Mostly Cloudy
5:52 AM 48.0 °F - 42.1 °F 80% 30.16 in 10.0 mi NE 8.1 mph - N/A   Partly Cloudy
6:52 AM 48.0 °F - 41.0 °F 77% 30.19 in 10.0 mi NNE 15.0 mph - N/A   Clear
8:52 AM 51.1 °F - 42.1 °F 71% 30.20 in 10.0 mi NE 15.0 mph - N/A   Mostly Cloudy
9:52 AM 54.0 °F - 43.0 °F 66% 30.18 in 10.0 mi NE 11.5 mph - N/A   Clear
10:52 AM 54.0 °F - 44.1 °F 69% 30.22 in 10.0 mi North 4.6 mph - 0.00 in   Overcast
11:03 AM 53.6 °F - 44.6 °F 72% 30.22 in 10.0 mi North 8.1 mph - 0.00 in Rain , Thunderstorm Light Rain
11:33 AM 57.2 °F - 46.4 °F 67% 30.21 in 10.0 mi NNE 11.5 mph - 0.00 in   Partly Cloudy
11:52 AM 57.0 °F - 46.9 °F 69% 30.20 in 10.0 mi ENE 15.0 mph - 0.00 in   Scattered Clouds
12:52 PM 57.0 °F - 48.0 °F 72% 30.19 in 10.0 mi NE 10.4 mph - N/A   Scattered Clouds
1:52 PM 57.0 °F - 46.9 °F 69% 30.17 in 10.0 mi NNE 10.4 mph - 0.00 in Rain Light Rain
2:52 PM 61.0 °F - 48.0 °F 62% 30.15 in 10.0 mi NNE 12.7 mph 20.7 mph 0.00 in   Scattered Clouds
3:52 PM 57.0 °F - 48.0 °F 72% 30.15 in 10.0 mi ENE 12.7 mph - N/A   Scattered Clouds
4:52 PM 55.9 °F - 46.9 °F 72% 30.16 in 10.0 mi NE 9.2 mph - N/A   Overcast
5:13 PM 55.4 °F - 46.4 °F 72% 30.14 in 10.0 mi NE 12.7 mph - N/A Thunderstorm Overcast
5:28 PM 53.6 °F - 48.2 °F 82% 30.13 in 7.0 mi NE 12.7 mph - 0.00 in Rain Light Rain
5:52 PM 53.1 °F - 46.0 °F 77% 30.14 in 10.0 mi ENE 13.8 mph - 0.00 in   Overcast
6:52 PM 51.1 °F - 45.0 °F 80% 30.16 in 10.0 mi NE 13.8 mph - 0.00 in   Mostly Cloudy
7:24 PM 50.0 °F - 44.6 °F 82% 30.16 in 10.0 mi NE 13.8 mph - N/A   Mostly Cloudy
7:52 PM 48.9 °F - 44.1 °F 83% 30.20 in 10.0 mi NE 11.5 mph - N/A Thunderstorm Overcast
8:01 PM 48.2 °F - 44.6 °F 87% 30.17 in 10.0 mi NE 15.0 mph - N/A Thunderstorm Thunderstorm
8:19 PM 48.2 °F - 44.6 °F 87% 30.16 in 9.0 mi NNE 13.8 mph - 0.01 in Rain , Thunderstorm Light Rain
8:33 PM 46.4 °F 39.5 °F 44.6 °F 93% 30.15 in 10.0 mi NE 17.3 mph 21.9 mph 0.01 in Rain , Thunderstorm Light Rain
8:40 PM 46.4 °F 40.4 °F 44.6 °F 93% 30.15 in 10.0 mi NE 13.8 mph - 0.01 in   Mostly Cloudy
8:52 PM 46.9 °F - 45.0 °F 93% 30.17 in 10.0 mi NNE 11.5 mph - 0.01 in   Mostly Cloudy
9:07 PM 46.4 °F 42.4 °F 44.6 °F 93% 30.16 in 10.0 mi NE 8.1 mph - N/A   Mostly Cloudy
9:39 PM 46.4 °F 40.1 °F 42.8 °F 87% 30.16 in 10.0 mi NE 15.0 mph 21.9 mph N/A   Overcast
9:52 PM 46.9 °F - 43.0 °F 86% 30.17 in 10.0 mi NE 15.0 mph - N/A   Overcast
10:15 PM 46.4 °F 40.7 °F 42.8 °F 87% 30.17 in 10.0 mi NE 12.7 mph - N/A   Overcast
10:43 PM 46.4 °F 40.4 °F 44.6 °F 93% 30.16 in 2.5 mi NNE 13.8 mph - 0.08 in Rain Heavy Rain
10:52 PM 46.0 °F 41.4 °F 44.1 °F 93% 30.17 in 3.0 mi NNE 9.2 mph - 0.11 in Rain Rain
11:52 PM 45.0 °F 39.7 °F 43.0 °F 93% 30.16 in 9.0 mi North 10.4 mph - 0.03 in   Overcast